Вернуться в каталог

STARLINK-2701

АктивенСвязьVLEO
NORAD 48656·PAYLOAD·🇺🇸 United States

Запущен May 26, 2021 с Cape Canaveral Space Force Station

Loading…

Ближайшие Пролёты (ближайшие 24 часа)

TLE

СвежийSource: CelesTrak SupGP

Эпоха: Sep 15, 2026, 01:07 UTC

1 48656C 21044U   26258.04701389  .00050773  00000+0  16324-2 0  2582
2 48656  53.1582 312.6132 0001292  84.9841 181.1587 15.31683029    11

Отслеживайте STARLINK-2701 в реальном времени с AllMySat

Download on the App Store